Location: Klein M�hlingen
(51.9472°N, 11.7453°E)
Time: 02:27:17
(UTC+00:00)

ISS - Pass Details

Date: 02 October 2021
Orbit: 417 x 423 km, 51.6° (Epoch: 25 October)

Event Time Altitude Azimuth Distance (km) Brightness Sun altitude
Rises 17:29:14 0° 282° (WNW) 2,366 2.3 -7.2°
Reaches altitude 10° 17:31:22 10° 277° (W) 1,501 0.8 -7.5°
Maximum altitude 17:34:38 50° 201° (SSW) 545 -3.1 -8.0°
Drops below altitude 10° 17:37:51 10° 125° (SE) 1,478 -1.5 -8.5°
Enters shadow 17:38:07 - 124° (SE) 1,586 -1.4 -8.6°
